Regional Weather Roundup
Issued by NWS

Home | Current Version | Previous Version | Text Only | Print | Product List | Glossary On
Versions: 1 2 3 4 5 6 7 8 9 10 11 12 13 14 15 16 17 18 19 20 21 22 23 24 25 26 27 28 29 30 31 32 33 34 35 36 37 38 39 40 41 42 43 44 45 46 47 48 49 50
000
ASUS43 KTOP 191308
RWRKS

WEATHER ROUNDUP FOR KANSAS
NATIONAL WEATHER SERVICE GOODLAND KS
800 AM CDT SAT APR 19 2014

NOTE:  "FAIR" INDICATES FEW OR NO CLOUDS BELOW 12,000 FEET WITH NO
SIGNIFICANT WEATHER AND/OR OBSTRUCTIONS TO VISIBILITY.

KSZ001>006-013>018-027>032-041>047-191400-
NORTHWEST KANSAS

CITY           SKY/WX    TMP DP  RH WIND       PRES   REMARKS
GOODLAND       PTCLDY    49  42  77 SW13      29.89R
HAYS           CLOUDY    55  46  71 S17       29.99R
HILL CITY      CLOUDY    58  46  64 S21G30    29.92R
RUSSELL        PTSUNNY   58  48  69 S28G33    29.98R
$$

KSZ061>065-074>080-084>089-191400-
SOUTHWEST KANSAS

CITY           SKY/WX    TMP DP  RH WIND       PRES   REMARKS
DODGE CITY     CLOUDY    54  46  74 S23G30    30.01F
ELKHART          N/A     51  38  61 S12         N/A
GARDEN CITY    PTSUNNY   52  44  74 S15G24    29.97R
GREAT BEND     PTSUNNY   57  46  67 S29G39    30.00F
LIBERAL        SUNNY     54  43  66 S21G28    30.01F
PRATT          PTSUNNY   52  46  82 S16       30.08R
$$

KSZ066>073-081>083-090>101-191400-
SOUTHEAST KANSAS

CITY           SKY/WX    TMP DP  RH WIND       PRES   REMARKS
CHANUTE        MOSUNNY   54  46  74 S8        30.18R
COFFEYVILLE    MOSUNNY   52  45  77 S6        30.18R
HUTCHINSON     PTSUNNY   54  44  69 S12       30.09R
MEDICINE LODGE   N/A     52  46  80 S13       30.09R
NEWTON         MOSUNNY   54  39  58 S9        30.13S
PARSONS        MOSUNNY   55  43  63 S7        30.19R
WICHITA INTL   PTSUNNY   56  44  64 S12       30.11R
WICHITA JABRA  MOSUNNY   55  43  63 S10       30.11R
WICHITA MCCONL MOSUNNY   55  46  70 S12       30.12R
WINFIELD       MOSUNNY   53  44  71 S9        30.15R
$$

KSZ007>012-019>026-033>040-048>060-102>105-191400-
NORTHEAST KANSAS

CITY           SKY/WX    TMP DP  RH WIND       PRES   REMARKS
CONCORDIA      CLOUDY    54  43  66 S17       30.03R
EMPORIA        MOSUNNY   50  41  71 S10       30.13R HAZE
LAWRENCE       MOSUNNY   51  44  77 SE8       30.15R
MANHATTAN      PTSUNNY   57  42  57 S8        30.09R
OLATHE IND     SUNNY     53  41  63 S9        30.17R
OLATHE EXE     SUNNY     51  41  68 S7        30.16R
SALINA         PTSUNNY   56  43  61 S16       30.06R
TOPEKA BILLARD MOSUNNY   55  42  61 S5        30.14R
TOPEKA FORBES  MOSUNNY   53  42  66 S8        30.13R
$$



USA.gov is the U.S. government's official web portal to all federal, state and local government web resources and services.